SL-8 R/B, 15006

Orbit data source: Space-Track

SL-8 R/B, 15006 is space debris in LEO originally from a launch on Mon, 28 May 1984 UTC launched from the Plesetsk Missile And Space Complex (PKMTR). Debris objects in space refer to the collection of defunct objects orbiting the Earth. Examples of debris include non-operational satellites, rocket bodies, and fragments generated from explosions, collisions, or faulty payload assembly.

Loading next visibility...
Identifier
15006, 1984-052J
Orbit
LEO
Country
Flag of CISCIS
Related business
Manufacturer
Omsk Av. Zav.
Mission
Spacecraft
Bus & Motor
S3, Unknown motor
Mass
1,434 kg wet, 1,434 kg dry
Launch date (UTC)
1984-05-28 (41 years ago)
Launch vehicle
Unknown
Launch site
Plesetsk Missile And Space Complex (PKMTR)
Object type
Payload
Rocket body
Debris
Shape & HBR
Cyl, 3.3 m
Radar Cross Section
14.646 m², Large (>1 m²)

Expand to show TLE details & history
Last TLE update: 9 hours ago

TLE from 9 hours ago
0 SL-8 R/B
1 15006U 84052J   25258.57337330  .00000024  00000-0  35033-3 0  9997
2 15006  74.0134 202.1059 0133310 315.5038 219.3870 12.23749427845039
Epoch: 2025-09-15T13:45Z
TLE epoch observation values (Epoch: 2025-09-15T13:45:39.453Z)
Latitude
5.76324°
Longitude
179.26642°
Altitude
1,660.565 km
Speed
7.007 km/s
True Right ascension
01h 21m 49s
True Declination
5° 43' 58"
Sunlit
Object was in full shadow at epoch
Visualization orbit readout
Latitude
Unknown
Longitude
Unknown
Altitude
Unknown
Speed
Unknown
Apparent Right ascension
Unknown
Apparent Declination
Unknown
Sunlit
N/A
Visualization observer readout
Local Sidereal Time
15:46:25
Azimuth
Unknown
Elevation
Unknown
Doppler factor
Unknown
Orbital elements
Apogee altitude
1,680.13 km
Perigee altitude
1,468.107 km
Semi-major axis
7,952.256 km
Eccentricity
0.01333
Inclination
74.0134°
RAAN
202.1059°
Arg. of periapsis
315.5038°
True anomaly
218.43002°
Mean anomaly
219.387°
Eccentric anomaly
218.90728°
Mean motion
3.06061 °/min
Orbital period
117.62 mins
BSTAR
0.00035033
Loading maneuver chart data...
Computing Atmospheric mass density...
Loading historical data...
Loading historical data...
Loading historical data...
Loading historical data...
Loading historical data...
Loading historical data...
Loading historical data...

Documentation

Showing up to 5 results
|